CZ-3B DEB, 42472

Orbit data source: Space-Track

CZ-3B DEB, 42472 is space debris in HEO originally from a launch on Mon, 19 Dec 2011 UTC launched from the Xichang Space Center, China (XSC). Debris objects in space refer to the collection of defunct objects orbiting the Earth. Examples of debris include non-operational satellites, rocket bodies, and fragments generated from explosions, collisions, or faulty payload assembly.

Loading next visibility...
Identifier
42472, 2011-077AM
Orbit
HEO
Country
Flag of CNCN / PRC
Related business
Manufacturer
CALT
Mission
Spacecraft
Bus & Motor
Unknown
Mass
Unknown
Launch date (UTC)
2011-12-19 (15 years ago)
Launch vehicle
Unknown
Launch site
Xichang Space Center, China (XSC)
Object type
Payload
Rocket body
Debris
Shape & HBR
Unknown shape, 0.2 m
Radar Cross Section
Medium (>0.1 m² and <1 m²)

Expand to show TLE details & history
Last TLE update: 7 months ago

TLE from 7 months ago
0 CZ-3B DEB
1 42472U 11077AM  26058.83914333 -.00000250  00000-0  00000-0 0  9998
2 42472  25.8633 332.2967 7178161 216.3672  61.7467  1.79310469 73076
Epoch: 2026-02-27T20:08Z
TLE epoch observation values (Epoch: 2026-02-27T20:08:21.983Z)
Latitude
0.00012°
Longitude
-127.42258°
Altitude
26,587.21 km
Speed
3.202 km/s
True Right ascension
22h 09m 21s
True Declination
0° 00' 00"
Sunlit
Object was in daylight at epoch
Visualization orbit readout
Latitude
Unknown
Longitude
Unknown
Altitude
Unknown
Speed
Unknown
Apparent Right ascension
Unknown
Apparent Declination
Unknown
Sunlit
N/A
Visualization observer readout
Local Sidereal Time
18:21:09
Azimuth
Unknown
Elevation
Unknown
Doppler factor
Unknown
Orbital elements
Apogee altitude
42,790.834 km
Perigee altitude
1,698.8 km
Semi-major axis
28,622.954 km
Eccentricity
0.71782
Inclination
25.8633°
RAAN
332.2967°
Arg. of periapsis
216.3672°
True anomaly
143.64691°
Mean anomaly
61.7467°
Eccentric anomaly
101.97893°
Mean motion
0.4482 °/min
Orbital period
803.21 mins
BSTAR
0
Loading maneuver chart data...
Computing Atmospheric mass density...
Loading historical data...
Loading historical data...
Loading historical data...
Loading historical data...
Loading historical data...
Loading historical data...
Loading historical data...

Documentation

Showing up to 5 results
|